[Iaude] MPEC L117: 2024 LD3 [a=1.72,e=0.30,i=23.0,H=20.4]
    mpec at cfa.harvard.edu 
    mpec at cfa.harvard.edu
       
    Tue Jun 11 07:40:27 EDT 2024
    
    
  
M.P.E.C. 2024-L117                                Issued 2024 June 11, 11:38 UT
     The Minor Planet Electronic Circulars contain information on unusual
         minor planets, routine data on comets and natural satellites,
         and occasional editorial announcements.  They are published
    on behalf of Division F of the International Astronomical Union by the
          Minor Planet Center, Smithsonian Astrophysical Observatory,
                          Cambridge, MA 02138, U.S.A.
			  
             Prepared using the Tamkin Foundation Computer Network
                              MPC at CFA.HARVARD.EDU
            URL https://www.minorplanetcenter.net/    ISSN 1523-6714
                                    2024 LD3                                    
Observations:
     K24L03D* C2024 06 07.52492621 27 07.521+05 34 30.48         21.42wXEL117F52
     K24L03D  C2024 06 07.53740421 27 09.922+05 34 10.48         21.50wXEL117F52
     K24L03D  C2024 06 07.56245721 27 14.735+05 33 30.03         21.32wXEL117F52
     K24L03D 3C2024 06 09.60224021 34 04.949+04 36 00.75         20.94GVEL117T14
     K24L03D 3C2024 06 09.60322021 34 05.142+04 35 58.99         20.92GVEL117T14
     K24L03D 3C2024 06 09.60420021 34 05.331+04 35 57.30         20.92GVEL117T14
     K24L03D 3C2024 06 09.60517821 34 05.522+04 35 55.55         20.96GVEL117T14
     K24L03D 1C2024 06 10.03479 21 35 33.31 +04 22 58.4          20.7 VXEL117033
     K24L03D 1C2024 06 10.03698 21 35 33.75 +04 22 55.7          20.7 VXEL117033
     K24L03D 1C2024 06 10.03964 21 35 34.27 +04 22 50.5          20.7 VXEL117033
     K24L03D KC2024 06 10.32362821 36 32.24 +04 14 19.2          20.8 GVEL117H21
     K24L03D KC2024 06 10.32921821 36 33.34 +04 14 09.3          20.6 GVEL117H21
     K24L03D KC2024 06 10.33480921 36 34.46 +04 13 59.3          20.7 GVEL117H21
     K24L03D KC2024 06 11.36932 21 40 06.46 +03 41 55.4          18.4 RVEL117691
     K24L03D KC2024 06 11.37534 21 40 07.68 +03 41 43.1          18.9 RVEL117691
     K24L03D KC2024 06 11.38136 21 40 08.88 +03 41 31.7          19.3 RVEL117691
Observer details:
033 Karl Schwarzschild Observatory, Tautenburg.  Observers C. Heogner, F.
    Ludwig, M. Hartmann, B. Stecklum.  Measurer B. Stecklum.  1.34-m f/3
    Schmidt + CCD.
691 Steward Observatory, Kitt Peak-Spacewatch.  Observer C. Lejoly.  0.9-m f/3
    reflector + CCD.
F52 Pan-STARRS 2, Haleakala.  Observers J. Herman, T. Lowe, P. Minguez, A.
    Schultz, I. Smith.  Measurers K. Chambers, T. de Boer, J. Fairlamb, H.
    Gao, M. Huber, C.-C. Lin, E. Magnier, Y. Ramanjooloo, R. Wainscoat, R.
    Weryk.  1.8-m Ritchey-Chretien + CCD.
H21 Astronomical Research Observatory, Westfield.  Observer R. Holmes.
    Measurers T. Linder, R. Holmes, L. Horn.  0.76-m f/3.0 astrograph + CCD.
T14 Canada-France-Hawaii Telescope, Maunakea.  Observers R. Wainscoat, A.
    Acohido, H. Flewelling.  Measurers R. Weryk, R. Wainscoat.  3.6-m f/4.1
    reflector + CCD.
Orbital elements:
2024 LD3                                                 Earth MOID = 0.1938 AU
Epoch 2024 Mar. 31.0 TT = JDT 2460400.5                 Veres                   
M 320.46111              (2000.0)            P               Q                  
n   0.43692983     Peri.  181.13350     +0.37131092     +0.85358287             
a   1.7199992      Node   110.75377     -0.84878556     +0.47158336             
e   0.2964110      Incl.   23.00218     -0.37641900     -0.22137168             
P   2.26           H   20.42          G   0.15           U   9                  
Residuals in seconds of arc
240607 F52  0.1+  0.0     240609 T14  0.0   0.0     240610 H21  0.3+  0.1+
240607 F52  0.0   0.1+    240610 033 (0.1-  0.9-)   240611 691  0.2-  0.6+
240607 F52  0.0   0.0     240610 033  0.1-  0.3+    240611 691  0.0   0.3-
240609 T14  0.1-  0.0     240610 033  0.2-  0.1-    240611 691  0.0   0.3-
240609 T14  0.0   0.1-    240610 H21  0.3+  0.3-
240609 T14  0.1-  0.0     240610 H21  0.2+  0.1-
Ephemeris:
2024 LD3                 a,e,i = 1.72, 0.30, 23                  q = 1.2102
Date    TT    R. A. (2000) Decl.     Delta      r    Elong.  Phase     V
2024 05 12    20 06 18.0 +11 54 19   0.5933  1.2766   102.4    50.6    21.7
...
2024 05 27    20 50 17.5 +09 32 19   0.4931  1.2428   106.0    51.6    21.3
...
2024 06 04    21 15 31.7 +07 02 10   0.4443  1.2293   108.4    51.5    21.0
...
2024 06 10    21 35 25.5 +04 24 19   0.4109  1.2214   110.5    51.1    20.8
2024 06 11    21 38 49.7 +03 53 44   0.4056  1.2203   110.9    51.0    20.8
2024 06 12    21 42 15.4 +03 21 52   0.4005  1.2193   111.3    50.9    20.7
...
2024 06 18    22 03 22.5 -00 17 26   0.3719  1.2141   113.7    50.0    20.6
...
2024 06 26    22 32 56.2 -06 26 33   0.3414  1.2105   117.1    48.4    20.3
...
2024 07 11    23 30 56.9 -21 09 03   0.3134  1.2141   122.5    44.9    20.0
M. P. C. Staff               (C) Copyright 2024 MPC           M.P.E.C. 2024-L117
    
    
More information about the Iaude
mailing list